OK1MAY-13 Weather Reports


time (UTC)temp
F
wind
direction
speed
knots
gust
knots
rain 1hr
in
rain 24hr
in
rain mn
in
humidity
%
barometer
mb
20260905183418 65 0.0 0.0 0.00 0.00 0.00 51 1022.3
20260905182417 65 0.0 0.0 0.00 0.00 0.00 51 1022.2
20260905181418 66 0.0 0.0 0.00 0.00 0.00 50 1022.1
20260905180418 66 0.0 0.0 0.00 0.00 0.00 49 1022.0
20260905175418 67 0.0 0.0 0.00 0.00 0.00 48 1021.7
20260905174418 67 0.0 0.0 0.00 0.00 0.00 48 1021.6
20260905173418 68 0.0 0.0 0.00 0.00 0.00 47 1021.5
20260905172418 69 0.0 0.0 0.00 0.00 0.00 46 1021.5
20260905171417 69 0.0 0.0 0.00 0.00 0.00 46 1021.4
20260905170421 69 0.0 0.0 0.00 0.00 0.00 44 1021.2
20260905165416 70 0.0 0.0 0.00 0.00 0.00 44 1021.1
20260905164416 70 0.0 0.0 0.00 0.00 0.00 47 1021.1
20260905162416 72 0.0 0.0 0.00 0.00 0.00 44 1020.9
20260905161416 72 0.0 0.0 0.00 0.00 0.00 43 1020.8
20260905160416 73 0.0 0.0 0.00 0.00 0.00 42 1020.7
20260905155416 75 0.0 0.0 0.00 0.00 0.00 40 1020.7
20260905154416 76 0.0 0.0 0.00 0.00 0.00 39 1020.5
20260905153416 78 0.0 0.0 0.00 0.00 0.00 38 1020.5
20260905152416 79 0.0 0.0 0.00 0.00 0.00 39 1020.5
20260905151416 81 0.0 0.0 0.00 0.00 0.00 37 1020.5
20260905150416 80 0.0 0.0 0.00 0.00 0.00 38 1020.5
20260905145416 81 0.0 0.0 0.00 0.00 0.00 39 1020.3
20260905144416 80 0.0 0.0 0.00 0.00 0.00 40 1020.3
20260905143417 79 0.0 0.0 0.00 0.00 0.00 41 1020.4
20260905142416 81 0.0 0.0 0.00 0.00 0.00 37 1020.3
20260905141416 81 0.0 0.0 0.00 0.00 0.00 38 1020.4
20260905140416 80 0.0 0.0 0.00 0.00 0.00 40 1020.3
20260905135416 77 0.0 0.0 0.00 0.00 0.00 40 1020.3
20260905134416 79 0.0 0.0 0.00 0.00 0.00 38 1020.4
20260905133417 81 0.0 0.0 0.00 0.00 0.00 39 1020.4
20260905132416 80 0.0 0.0 0.00 0.00 0.00 41 1020.4
20260905131416 77 0.0 0.0 0.00 0.00 0.00 40 1020.5
20260905130416 77 0.0 0.0 0.00 0.00 0.00 41 1020.7
20260905125416 76 0.0 0.0 0.00 0.00 0.00 43 1020.7
20260905124416 81 0.0 0.0 0.00 0.00 0.00 40 1020.5
20260905123416 81 0.0 0.0 0.00 0.00 0.00 39 1020.7
20260905122416 78 0.0 0.0 0.00 0.00 0.00 43 1020.8
20260905121416 75 0.0 0.0 0.00 0.00 0.00 44 1021.0
20260905120416 76 0.0 0.0 0.00 0.00 0.00 46 1021.0
20260905115416 73 0.0 0.0 0.00 0.00 0.00 48 1021.2
20260905114416 74 0.0 0.0 0.00 0.00 0.00 48 1021.2
20260905113416 76 0.0 0.0 0.00 0.00 0.00 43 1021.1
20260905112417 76 0.0 0.0 0.00 0.00 0.00 42 1021.2
20260905111416 76 0.0 0.0 0.00 0.00 0.00 44 1021.2
20260905110417 76 0.0 0.0 0.00 0.00 0.00 46 1021.1
20260905105417 75 0.0 0.0 0.00 0.00 0.00 47 1021.1
20260905104416 76 0.0 0.0 0.00 0.00 0.00 48 1021.0
20260905103416 74 0.0 0.0 0.00 0.00 0.00 50 1021.0
20260905102416 72 0.0 0.0 0.00 0.00 0.00 53 1021.0
20260905101416 70 0.0 0.0 0.00 0.00 0.00 58 1021.0
20260905100416 69 0.0 0.0 0.00 0.00 0.00 58 1020.9
20260905095416 70 0.0 0.0 0.00 0.00 0.00 57 1020.9
20260905094416 73 0.0 0.0 0.00 0.00 0.00 54 1020.8
20260905093416 71 0.0 0.0 0.00 0.00 0.00 58 1021.0
20260905092418 69 0.0 0.0 0.00 0.00 0.00 61 1021.1
20260905091416 70 0.0 0.0 0.00 0.00 0.00 61 1020.9
20260905090416 71 0.0 0.0 0.00 0.00 0.00 59 1021.0
20260905085416 71 0.0 0.0 0.00 0.00 0.00 64 1020.9
20260905084417 68 0.0 0.0 0.00 0.00 0.00 68 1021.1
20260905083416 66 0.0 0.0 0.00 0.00 0.00 71 1020.9
20260905082416 68 0.0 0.0 0.00 0.00 0.00 69 1020.9
20260905081416 69 0.0 0.0 0.00 0.00 0.00 67 1020.5
20260905080416 67 0.0 0.0 0.00 0.00 0.00 71 1020.5
20260905075416 67 0.0 0.0 0.00 0.00 0.00 70 1020.4
20260905074416 66 0.0 0.0 0.00 0.00 0.00 75 1020.4
20260905073416 64 0.0 0.0 0.00 0.00 0.00 77 1020.4
20260905072416 62 0.0 0.0 0.00 0.00 0.00 78 1020.4
20260905071416 62 0.0 0.0 0.00 0.00 0.00 78 1020.4
20260905070417 62 0.0 0.0 0.00 0.00 0.00 79 1020.3
20260905065416 62 0.0 0.0 0.00 0.00 0.00 79 1020.3
20260905064416 62 0.0 0.0 0.00 0.00 0.00 82 1020.2
20260905063416 61 0.0 0.0 0.00 0.00 0.00 81 1020.2
20260905062416 60 0.0 0.0 0.00 0.00 0.00 85 1020.1
20260905061416 59 0.0 0.0 0.00 0.00 0.00 88 1020.2
20260905060416 58 0.0 0.0 0.00 0.00 0.00 88 1020.1
20260905055416 58 0.0 0.0 0.00 0.00 0.00 89 1020.1
20260905054416 58 0.0 0.0 0.00 0.00 0.00 88 1019.8
20260905053416 57 0.0 0.0 0.00 0.00 0.00 88 1019.7
20260905052417 57 0.0 0.0 0.00 0.00 0.00 89 1019.5
20260905051416 57 0.0 0.0 0.00 0.00 0.00 89 1019.4
20260905050418 57 0.0 0.0 0.00 0.00 0.00 88 1019.2
20260905045415 57 0.0 0.0 0.00 0.00 0.00 88 1019.1
20260905044415 58 0.0 0.0 0.00 0.00 0.00 88 1018.7
20260905043415 58 0.0 0.0 0.00 0.00 0.00 89 1018.5
20260905042414 58 0.0 0.0 0.00 0.00 0.00 89 1019.0
20260905041414 59 0.0 0.0 0.00 0.00 0.00 88 1018.3
20260905040415 59 0.0 0.0 0.00 0.00 0.00 89 1018.6
20260905035414 60 0.0 0.0 0.00 0.00 0.00 89 1018.7
20260905034414 60 0.0 0.0 0.00 0.00 0.00 90 1018.9
20260905033414 60 0.0 0.0 0.00 0.00 0.00 90 1018.7
20260905032414 61 0.0 0.0 0.00 0.00 0.00 89 1018.4
20260905031415 61 0.0 0.0 0.00 0.00 0.00 90 1018.2
20260905030414 61 0.0 0.0 0.00 0.00 0.00 88 1018.0
20260905025414 61 0.0 0.0 0.00 0.00 0.00 88 1017.9
20260905024414 61 0.0 0.0 0.00 0.00 0.00 87 1017.7
20260905023414 62 0.0 0.0 0.00 0.00 0.00 87 1017.8
20260905022415 62 0.0 0.0 0.00 0.00 0.00 84 1017.7
20260905021414 62 0.0 0.0 0.00 0.00 0.00 82 1017.3
20260905020414 63 0.0 0.0 0.00 0.00 0.00 79 1017.3
20260905015415 64 0.0 0.0 0.00 0.00 0.00 77 1017.7
20260905014414 64 0.0 0.0 0.00 0.00 0.00 77 1017.1
20260905013414 64 0.0 0.0 0.00 0.00 0.00 76 1017.4
20260905012415 64 0.0 0.0 0.00 0.00 0.00 76 1017.3
20260905011415 64 0.0 0.0 0.00 0.00 0.00 75 1017.6
20260905010414 64 0.0 0.0 0.00 0.00 0.00 74 1017.0
20260905005415 65 0.0 0.0 0.00 0.00 0.00 74 1016.8
20260905004414 65 0.0 0.0 0.00 0.00 0.00 73 1016.7
20260905003414 66 0.0 0.0 0.00 0.00 0.00 72 1016.6
20260905002414 66 0.0 0.0 0.00 0.00 0.00 72 1017.0
20260905001415 66 0.0 0.0 0.00 0.00 0.00 71 1016.5
20260905000414 67 0.0 0.0 0.00 0.00 0.00 70 1016.3
20260904235415 67 0.0 0.0 0.00 0.00 0.00 67 1016.5
20260904234414 67 0.0 0.0 0.00 0.00 0.00 68 1016.1
20260904233414 67 0.0 0.0 0.00 0.00 0.00 67 1015.7
20260904232414 67 0.0 0.0 0.00 0.00 0.00 68 1015.4
20260904231415 67 0.0 0.0 0.00 0.00 0.00 68 1015.2
20260904230415 67 0.0 0.0 0.00 0.00 0.00 68 1015.0
20260904225414 67 0.0 0.0 0.00 0.00 0.00 69 1014.7
20260904224414 68 0.0 0.0 0.00 0.00 0.00 68 1014.6
20260904223414 68 0.0 0.0 0.00 0.00 0.00 69 1014.6
20260904222414 68 0.0 0.0 0.00 0.00 0.00 71 1014.2
20260904221414 68 0.0 0.0 0.00 0.00 0.00 73 1013.9
20260904220415 68 0.0 0.0 0.00 0.00 0.00 72 1013.5
20260904215414 68 0.0 0.0 0.00 0.00 0.00 73 1013.2
20260904214414 69 0.0 0.0 0.00 0.00 0.00 72 1013.2
20260904213414 69 0.0 0.0 0.00 0.00 0.00 71 1012.8
20260904212414 70 0.0 0.0 0.00 0.00 0.00 70 1012.8
20260904211414 71 0.0 0.0 0.00 0.00 0.00 68 1012.5
20260904210414 72 0.0 0.0 0.00 0.00 0.00 67 1012.4
20260904205414 73 0.0 0.0 0.00 0.00 0.00 64 1012.4
20260904204414 74 0.0 0.0 0.00 0.00 0.00 61 1012.4
20260904203415 75 0.0 0.0 0.00 0.00 0.00 58 1012.3
20260904202415 76 0.0 0.0 0.00 0.00 0.00 56 1011.7
20260904201414 76 0.0 0.0 0.00 0.00 0.00 56 1011.8
20260904200415 75 0.0 0.0 0.00 0.00 0.00 57 1012.0
20260904195414 75 0.0 0.0 0.00 0.00 0.00 58 1012.1
20260904194415 75 0.0 0.0 0.00 0.00 0.00 59 1012.2
20260904193415 75 0.0 0.0 0.00 0.00 0.00 58 1012.3
20260904192414 75 0.0 0.0 0.00 0.00 0.00 60 1012.3
20260904191414 75 0.0 0.0 0.00 0.00 0.00 60 1012.2
20260904190414 75 0.0 0.0 0.00 0.00 0.00 59 1012.2
20260904185415 76 0.0 0.0 0.00 0.00 0.00 58 1012.2
20260904184414 76 0.0 0.0 0.00 0.00 0.00 57 1012.2